Regional Weather Roundup
Issued by NWS Wilmington, NC

Home | Current Version | Previous Version | Text Only | Print | Product List | Glossary On
Versions: 1 2 3 4 5 6 7 8 9 10 11 12 13 14 15 16 17 18 19 20 21 22 23 24 25 26 27 28 29 30 31 32 33 34 35 36 37 38 39 40 41 42 43 44 45 46 47 48 49 50
000
ASUS42 KILM 292113
RWRILM
RWRILM
REGIONAL HOURLY WEATHER ROUNDUP
NATIONAL WEATHER SERVICE WILMINGTON NC
500 PM EDT SUN MAY 29 2016

NOTE: "FAIR" INDICATES FEW OR NO CLOUDS BELOW 12,000 FEET WITH NO
SIGNIFICANT WEATHER AND/OR OBSTRUCTIONS TO VISIBILITY.

...............WFO WILMINGTON COUNTY WARNING AREA...............

......COASTAL NC AND SC COUNTIES......

CITY           SKY/WX    TMP DP  RH WIND       PRES   REMARKS
WILMINGTON     PTSUNNY   77  74  90 SE9       29.99S
N MYRTLE BEACH PTSUNNY   79  71  76 SE8G17    29.95F
MYRTLE BEACH   NOT AVBL

......INLAND NC AND SC COUNTIES.......

CITY           SKY/WX    TMP DP  RH WIND       PRES   REMARKS
LUMBERTON      CLOUDY    80  71  74 E10       29.96S
ELIZABETHTOWN  CLOUDY    78  73  84 E6        29.98R
WHITEVILLE     MOSUNNY   78  73  84 E7        29.96F
FLORENCE       SUNNY     83  68  60 E17       29.94R
DARLINGTON     LGT RAIN  74  72  93 VRB3      29.96F
KINGSTREE      CLOUDY    77  68  73 E9        29.91F
HARTSVILLE     CLOUDY    70  68  94 NE7       29.97R VSB 3/4
BENNETTSVILLE  FAIR      79  73  83 N8        29.96S
CONWAY         PTSUNNY   77  68  73 SE9       29.95S
GEORGETOWN     CLOUDY    73  68  83 E10       29.93F
MARION         FAIR      81  68  65 SE9G21    29.95S

....................REST OF NORTH CAROLINA......................

.........EASTERN NC.........

CITY           SKY/WX    TMP DP  RH WIND       PRES   REMARKS
CAPE HATTERAS  MOSUNNY   83  74  74 S9        30.07S
JACKSONVILLE   PTSUNNY   80  73  79 SE9       30.02R
MOREHEAD CITY  MOSUNNY   80  73  79 S12       30.03F
KENANSVILLE    PTSUNNY   83  69  61 CALM      30.01R
NEW BERN       PTSUNNY   81  69  67 S14       30.03F
ELIZABETH CITY CLOUDY    77  73  87 CALM      30.05F

.........CENTRAL NC.........

CITY           SKY/WX    TMP DP  RH WIND       PRES   REMARKS
RALEIGH DURHAM CLOUDY    72  70  94 N8        30.04R THUNDER
ROCKY MOUNT    LGT RAIN  83  73  72 VRB6      30.01F
ROANOKE RAPIDS NOT AVBL
FAYETTEVILLE   MOSUNNY   82  74  76 NE7       29.98S
HOFFMAN        CLOUDY    75  71  87 N10G21    29.99S

.........WESTERN NC.........

CITY           SKY/WX    TMP DP  RH WIND       PRES   REMARKS
CHARLOTTE      CLOUDY    76  60  57 N17G25    30.06F
GREENSBORO     LGT RAIN  72  63  73 NE10G20   30.08S
HICKORY        NOT AVBL
BOONE          NOT AVBL
ASHEVILLE      NOT AVBL

.....................REST OF SOUTH CAROLINA.....................

.........EASTERN SC.........

CITY           SKY/WX    TMP DP  RH WIND       PRES   REMARKS
CHARLESTON     CLOUDY    78  67  68 SE5       29.88F
BEAUFORT MCAS  LGT RAIN  69  67  93 W14G21    29.90R FOG
HILTON HEAD    NOT AVBL

.........CENTRAL SC.........

CITY           SKY/WX    TMP DP  RH WIND       PRES   REMARKS
COLUMBIA       CLOUDY    78  65  63 N10G18    29.97S
ORANGEBURG     HVY RAIN  71  69  93 N14G20    29.93S VSB 3/4
SUMTER SHAW    CLOUDY    73  70  91 N17       29.91F

.........WESTERN SC.........

CITY           SKY/WX    TMP DP  RH WIND       PRES   REMARKS
GREENVILLE     NOT AVBL
ROCK HILL      CLOUDY    76  62  62 N18       30.04F
ANDERSON       LGT RAIN  72  62  71 N5        30.06F
CLEMSON        NOT AVBL
GREENWOOD      CLOUDY    78  61  55 N12       30.05F


...................COASTAL AND OFFSHORE REPORTS..................

................LOCAL PIERS AND NC RESERVE................


STATION/POSITION TIME  SKY/WX   TEMP    WIND        PRES    VSBY
                                AIR SEA DIR/SP/G
                 (UTC)          (F)     (DEG/KT/KT) (MB)    (MI)
JOHNY MRCER PIER 2000            77 80  130/ 12/ 13 1014.8F
NC RESRV MASNBRO NOT AVBL
OCEAN CREST PIER NOT AVBL
SPRINGMAID  PIER 2000            76 77  130/ 12/ 14 1014.3F


................COASTAL AND OFFSHORE BUOYS................


STATION/POSITION TIME  SKY/WX   TEMP    WIND        PRES    VSBY
                                AIR SEA DIR/SP/G
                 (UTC)          (F)     (DEG/KT/KT) (MB)    (MI)
DIMNDSHOAL 41025 2050            79 78  160/ 17/ 21 1017.6F
WVE H/P(F/S)=  6/ 7 SWL H/P/D(F/S/D)=  2/150/ 8

CAPE LOOKOUT     2100            77     140/ 10/ 11 1016.4F
ONSLOW BAY 41036 NOT AVBL
ONSLOW BAY 41064 2008            78 75  150/ 14/ 19 1016.5F
ONSLOW BAY 41159 2025               75                N/A
WVE H/P(F/S)=  7/ 7

5SE WRITBC 41038 NOT AVBL
MASNBO INL 41110 2006               75                N/A
WVE H/P(F/S)=  5/ 8

WILM HARBR 41108 2026               75                N/A
WVE H/P(F/S)=  5/ 7

27SE WRITB 41037 2008            79 76  150/ 16/ 21 1015.1F
FRYING PAN 41013 2000            78 79  150/ 14/ 16 1015.0F
SUNST NRSH 41024 2008            76 76  140/ 10/ 14 1014.4F
CAPRS NRSH 41029 2008            72 76  170/ 10/ 14 1012.2F
EDISTO     41004 2050            72 78  210/ 17/ 19 1012.8F
WVE H/P(F/S)=  6/ 8



..........OFFSHORE BUOYS BEYOND 100 NM OFFSHORE...........
.....IN A TRIANGLE---HAT TO BERMUDA TO BAHAMAS TO HAT.....


STATION/POSITION TIME  SKY/WX   TEMP    WIND        PRES    VSBY
                                AIR SEA DIR/SP/G
                 (UTC)          (F)     (DEG/KT/KT) (MB)    (MI)
150E HAT   41001 NOT AVBL
W BERMUDA  41048 2050            76 76  120/ 14/ 16 1021.6F
WVE H/P(F/S)=  5/ 7 SWL H/P/D(F/S/D)=  3/140/ 7

ATLANTIC S 41049 2050            78 78   90/ 12/ 16 1021.4F
WVE H/P(F/S)=  4/ 5 SWL H/P/D(F/S/D)=  3/130/ 8

E BAHAMAS  41046 2000            81 81   90/ 14/ 17 1017.5F
NE BAHAMAS 41047 2000            77 80  130/ 14/ 17 1018.5S
120E CANVRL41010 2020            79 80  330/  4/  6 1017.4F

END



USA.gov is the U.S. government's official web portal to all federal, state and local government web resources and services.